E7739 Weather Reports


time (UTC)temp
C
wind
direction
speed
KPH
gust
KPH
rain 1hr
cm
rain 24hr
cm
rain mn
cm
humidity
%
barometer
mb
20260504081015 11 231 1.6 4.8 0.00 0.00 0.00 86 1006.1
20260504080509 11 231 1.6 4.8 0.00 0.00 0.00 87 1006.1
20260504070403 9 214 1.6 3.2 0.00 0.00 0.00 90 1006.3
20260504060148 10 212 0.0 0.0 0.00 0.00 0.00 88 1006.9
20260504050355 11 212 0.0 3.2 0.00 0.00 0.00 80 1007.5
20260504045843 11 212 0.0 3.2 0.00 0.00 0.00 80 1007.6
20260504045327 11 212 0.0 3.2 0.00 0.00 0.00 79 1007.6
20260504044809 12 198 0.0 4.8 0.00 0.00 0.00 78 1007.8
20260504044257 12 212 1.6 4.8 0.00 0.00 0.00 78 1007.8
20260504043747 12 212 1.6 4.8 0.00 0.00 0.00 77 1007.8
20260504043248 12 248 1.6 4.8 0.00 0.00 0.00 77 1007.8
20260504042734 12 228 1.6 6.4 0.00 0.00 0.00 77 1007.8
20260504042218 12 223 0.0 6.4 0.00 0.00 0.00 77 1007.8
20260504041709 12 230 0.0 4.8 0.00 0.00 0.00 76 1007.8
20260504041154 12 230 3.2 8.0 0.00 0.00 0.00 76 1007.8
20260504040642 12 233 3.2 8.0 0.00 0.00 0.00 76 1007.8
20260504040126 12 245 3.2 8.0 0.00 0.00 0.00 77 1007.9
20260504035610 12 199 1.6 6.4 0.00 0.00 0.00 78 1007.9
20260504035054 11 210 0.0 3.2 0.00 0.00 0.00 79 1007.9
20260504034550 11 210 0.0 0.0 0.00 0.00 0.00 78 1008.1
20260504033542 12 210 0.0 0.0 0.00 0.00 0.00 77 1008.1
20260504033030 12 210 0.0 0.0 0.00 0.00 0.00 77 1008.3
20260504032523 12 210 0.0 0.0 0.00 0.00 0.00 76 1008.3
20260504032002 12 210 0.0 0.0 0.00 0.00 0.00 76 1008.3
20260504030948 12 210 1.6 4.8 0.00 0.00 0.00 75 1008.1
20260504030433 12 210 0.0 4.8 0.00 0.00 0.00 75 1008.1
20260504025916 12 210 1.6 6.4 0.00 0.00 0.00 75 1008.0
20260504025400 12 210 3.2 6.4 0.00 0.00 0.00 75 1008.0
20260504024848 12 215 3.2 6.4 0.00 0.00 0.00 76 1008.0
20260504024351 12 217 1.6 4.8 0.00 0.00 0.00 77 1008.2
20260504023847 12 205 1.6 4.8 0.00 0.00 0.00 76 1008.2
20260504023340 12 205 1.6 4.8 0.00 0.00 0.00 76 1008.2
20260504021822 13 205 0.0 3.2 0.00 0.00 0.00 73 1008.1
20260504021313 13 205 0.0 3.2 0.00 0.00 0.00 72 1008.1
20260504020757 13 205 0.0 3.2 0.00 0.00 0.00 71 1008.1
20260504020239 13 205 0.0 3.2 0.00 0.00 0.00 71 1007.9
20260504015740 14 205 0.0 3.2 0.00 0.00 0.00 71 1007.9
20260504015232 14 205 0.0 3.2 0.00 0.00 0.00 71 1007.9
20260504014712 15 205 0.0 3.2 0.00 0.00 0.00 68 1007.9
20260504014202 15 205 0.0 3.2 0.00 0.00 0.00 68 1007.9
20260504013652 15 205 1.6 3.2 0.00 0.00 0.00 67 1007.9
20260504013146 16 205 1.6 3.2 0.00 0.00 0.00 65 1007.8
20260504012637 16 236 1.6 3.2 0.00 0.00 0.00 62 1007.8
20260504012129 17 236 1.6 4.8 0.00 0.00 0.00 61 1007.8
20260504011625 17 236 1.6 6.4 0.00 0.00 0.00 60 1007.6
20260504011122 17 235 3.2 8.0 0.00 0.00 0.00 59 1007.6
20260504010602 17 219 3.2 8.0 0.00 0.00 0.00 59 1007.6
20260504010050 17 235 1.6 6.4 0.00 0.00 0.00 58 1007.6
20260504005540 17 283 0.0 3.2 0.00 0.00 0.00 58 1007.6
20260504004520 18 239 0.0 4.8 0.00 0.00 0.00 56 1007.6
20260504002959 18 278 1.6 4.8 0.00 0.00 0.00 55 1007.3
20260504002450 18 278 1.6 4.8 0.00 0.00 0.00 55 1007.3
20260504001430 19 278 1.6 3.2 0.00 0.00 0.00 54 1007.5
20260504000918 19 278 1.6 8.0 0.00 0.00 0.00 53 1007.5
20260503235400 19 233 1.6 9.7 0.00 0.00 0.00 51 1007.4
20260503234851 19 217 3.2 9.7 0.00 0.00 0.00 51 1007.4
20260503234341 20 278 6.4 16.1 0.00 0.00 0.00 51 1007.7
20260503233834 20 209 6.4 16.1 0.00 0.00 0.00 50 1007.7
20260503233328 20 278 4.8 14.5 0.00 0.00 0.00 50 1007.7
20260503232818 19 213 4.8 11.3 0.00 0.00 0.00 49 1007.6
20260503232314 20 291 4.8 14.5 0.00 0.00 0.00 49 1007.6
20260503231248 20 258 4.8 11.3 0.00 0.00 0.00 49 1007.8
20260503230734 20 249 4.8 11.3 0.00 0.00 0.00 49 1007.8
20260503225714 20 284 4.8 19.3 0.00 0.00 0.00 49 1007.9
20260503225208 20 289 6.4 19.3 0.00 0.00 0.00 48 1007.9
20260503224701 20 266 8.0 22.5 0.00 0.00 0.00 48 1007.9
20260503224152 20 291 8.0 22.5 0.00 0.00 0.00 47 1007.9
20260503223646 20 236 6.4 24.1 0.00 0.00 0.00 47 1007.9
20260503223135 20 227 6.4 24.1 0.00 0.00 0.00 47 1008.0
20260503222629 20 254 8.0 19.3 0.00 0.00 0.00 47 1008.0
20260503222115 20 219 11.3 25.7 0.00 0.00 0.00 47 1008.0
20260503221610 19 231 11.3 25.7 0.00 0.00 0.00 46 1008.0
20260503221059 19 252 11.3 24.1 0.00 0.00 0.00 48 1008.0
20260503220044 19 250 11.3 29.0 0.00 0.00 0.00 49 1007.9
20260503215546 19 217 11.3 29.0 0.00 0.00 0.00 48 1007.9
20260503215043 19 219 9.7 24.1 0.00 0.00 0.00 48 1007.9
20260503214041 19 248 11.3 25.7 0.00 0.00 0.00 50 1008.2
20260503213540 18 244 14.5 30.6 0.00 0.00 0.00 48 1008.2
20260503213038 18 194 17.7 35.4 0.00 0.00 0.00 48 1008.1
20260503212536 18 252 19.3 37.0 0.00 0.00 0.00 48 1008.1
20260503211532 18 171 17.7 43.5 0.00 0.00 0.00 47 1008.1
20260503211032 18 204 17.7 41.8 0.00 0.00 0.00 48 1008.1
20260503210531 18 221 19.3 41.8 0.00 0.00 0.00 48 1008.1
20260503210031 18 204 20.9 37.0 0.00 0.00 0.00 47 1008.6
20260503205022 17 240 19.3 38.6 0.00 0.00 0.00 48 1008.6
20260503204520 17 223 22.5 41.8 0.00 0.00 0.00 48 1008.6
20260503203009 18 238 25.7 46.7 0.00 0.00 0.00 49 1009.1
20260503202510 17 241 27.4 41.8 0.00 0.00 0.00 50 1009.1
20260503202011 17 230 27.4 46.7 0.00 0.00 0.00 48 1009.1
20260503201509 17 210 29.0 48.3 0.00 0.00 0.00 49 1009.2
20260503201011 17 208 29.0 48.3 0.00 0.00 0.00 48 1009.2
20260503200009 17 212 29.0 45.1 0.00 0.00 0.00 48 1009.6
20260503195510 17 200 29.0 48.3 0.00 0.00 0.00 49 1009.6
20260503195006 17 239 27.4 48.3 0.00 0.00 0.00 49 1009.6
20260503194506 17 233 25.7 46.7 0.00 0.00 0.00 49 1009.8
20260503194005 17 210 27.4 49.9 0.00 0.00 0.00 50 1009.8
20260503193005 17 191 24.1 41.8 0.00 0.00 0.00 48 1009.8
20260503192502 17 251 24.1 41.8 0.00 0.00 0.00 47 1009.8
20260503192005 17 234 24.1 46.7 0.00 0.00 0.00 47 1009.8
20260503191458 17 208 24.1 53.1 0.00 0.00 0.00 47 1010.2
20260503190959 17 223 24.1 53.1 0.00 0.00 0.00 47 1010.2
20260503185953 17 177 24.1 45.1 0.00 0.00 0.00 46 1010.3
20260503184953 17 227 24.1 48.3 0.00 0.00 0.00 48 1010.3
20260503183947 17 246 24.1 41.8 0.00 0.00 0.00 49 1011.2
20260503183440 17 206 27.4 41.8 0.00 0.00 0.00 47 1011.2
20260503182933 17 199 25.7 41.8 0.00 0.00 0.00 47 1011.9
20260503182423 17 227 24.1 40.2 0.00 0.00 0.00 47 1011.9
20260503181405 16 167 22.5 37.0 0.00 0.00 0.00 50 1012.7
20260503180857 16 233 20.9 38.6 0.00 0.00 0.00 52 1012.7
20260503180351 15 208 20.9 38.6 0.00 0.00 0.00 52 1012.7
20260503175839 15 206 19.3 32.2 0.00 0.00 0.00 52 1013.1
20260503175325 15 253 19.3 32.2 0.00 0.00 0.00 52 1013.1
20260503174819 15 254 19.3 35.4 0.00 0.00 0.00 51 1013.1
20260503174310 15 232 19.3 35.4 0.00 0.00 0.00 50 1013.3
20260503173803 15 219 17.7 32.2 0.00 0.00 0.00 51 1013.3
20260503173253 15 231 16.1 32.2 0.00 0.00 0.00 53 1013.7
20260503172737 15 236 16.1 30.6 0.00 0.00 0.00 51 1013.7
20260503172232 15 209 16.1 33.8 0.00 0.00 0.00 52 1013.7
20260503171721 15 221 19.3 33.8 0.00 0.00 0.00 51 1013.0
20260503171220 15 206 19.3 32.2 0.00 0.00 0.00 52 1013.0
20260503170720 15 172 22.5 43.5 0.00 0.00 0.00 52 1013.0
20260503170219 15 215 22.5 43.5 0.00 0.00 0.00 50 1013.5
20260503160150 15 195 16.1 27.4 0.00 0.00 0.00 54 1015.1
20260503150528 14 233 17.7 27.4 0.00 0.00 0.00 59 1015.6
20260503131417 9 192 9.7 20.9 0.00 0.00 0.00 74 1016.3
20260503130914 9 239 12.9 24.1 0.00 0.00 0.00 74 1016.3
20260503110725 5 224 3.2 6.4 0.00 0.00 0.00 81 1016.5
20260503110222 5 212 3.2 6.4 0.00 0.00 0.00 81 1016.6
20260503090423 3 193 0.0 0.0 0.00 0.00 0.00 85 1017.0